Overview Statistics Trail Chart Weather Telemetry Raw packets
 

This is the latest recevied weather packets stored in our database for station/object YD2CLX-11. If no packets are shown the sender has not sent any weather packets the latest 10 day(s).

<< 4 5 6 7 8 9 10 >>
Time Temp. Humidity Pressure Rain* Wind** Luminosity Snow
1788519770 28.89° C 66% 999 hPa - - - -
1788519169 28.89° C 66% 998.9 hPa - - - -
1788518568 29.44° C 65% 998.7 hPa - - - -
1788517967 29.44° C 64% 998.5 hPa - - - -
1788517366 30° C 63% 998.3 hPa - - - -
1788516765 30.56° C 62% 998.2 hPa - - - -
1788516164 30.56° C 61% 998 hPa - - - -
1788515562 31.11° C 60% 997.9 hPa - - - -
1788514961 31.67° C 59% 997.6 hPa - - - -
1788514360 32.22° C 57% 997.5 hPa - - - -
1788513760 32.22° C 57% 997.4 hPa - - - -
1788513158 32.78° C 55% 997.2 hPa - - - -
1788512556 33.33° C 54% 997 hPa - - - -
1788511955 34.44° C 51% 996.8 hPa - - - -
1788511354 34.44° C 51% 996.7 hPa - - - -
1788510753 35° C 49% 996.7 hPa - - - -
1788509551 35° C 49% 996.7 hPa - - - -
1788508950 35° C 49% 996.7 hPa - - - -
1788508348 35.56° C 48% 996.7 hPa - - - -
1788507747 36.67° C 46% 996.7 hPa - - - -
1788507146 36.67° C 45% 996.7 hPa - - - -
1788506545 36.67° C 45% 996.7 hPa - - - -
1788505944 36.67° C 46% 996.9 hPa - - - -
1788505343 36.11° C 45% 997 hPa - - - -
1788504742 36.67° C 45% 996.9 hPa - - - -

* Rain since midnight (hover to see other rain measurements)
** Current wind speed in m/s (hover to see current wind gust speed)